GFSGBSN_925_rhum_063.txt.gz
RH
82 89 96 94 88 83 86 94 85 73 70 70 68 69 75 83 84 80 79 80 79 75 73 71 60 77 84 79 63 11 25 23 24 20 17 21 23 21 20 17 18 19 19 19 20 21 33
91 92 89 82 76 80 93 86 85 84 80 70 65 66 68 73 77 80 77 76 76 71 71 66 63 83 90 89 16 21 30 33 23 20 22 22 20 22 20 21 24 22 24 26 21 24 53
85 85 86 79 81 79 78 76 73 74 80 84 78 68 65 65 65 67 69 71 73 72 69 63 66 95 78 68 12 32 36 40 33 25 24 22 21 22 22 25 21 23 25 25 21 20 46
81 80 85 84 79 80 79 78 80 79 74 73 86 85 76 71 63 64 67 70 67 63 64 58 79 94 87 20 29 26 15 20 21 27 23 27 22 23 22 22 25 26 26 30 20 17 24
84 81 81 87 83 79 81 78 76 76 75 73 71 78 84 80 71 63 68 65 50 51 70 62 98 93 83 35 49 28 38 34 15 18 24 30 24 28 24 31 34 34 34 30 27 20 22
82 81 78 80 83 83 78 76 76 73 76 78 76 68 64 72 75 66 56 54 45 71 74 95 94 80 58 32 26 30 29 34 26 30 34 32 30 31 37 36 45 38 37 31 31 25 39
85 87 76 78 86 93 92 94 83 85 82 84 84 78 69 61 75 72 58 66 62 72 71 76 69 69 44 36 37 32 35 32 26 29 40 30 36 39 32 33 30 28 32 35 31 25 37
80 78 79 84 86 89 94 95 86 85 84 84 84 85 80 69 60 58 58 89 68 73 93 63 57 58 57 55 57 32 29 33 34 38 34 32 37 29 28 32 32 34 36 35 30 26 35
78 77 78 83 86 92 94 95 85 80 78 78 83 82 86 75 74 64 73 76 70 75 92 73 51 43 28 50 59 50 33 30 32 39 37 40 32 26 29 33 34 35 36 34 32 27 27
74 76 75 79 87 93 94 94 71 70 70 79 82 79 81 81 79 76 87 79 59 82 99 47 50 41 32 45 63 34 24 28 32 34 36 37 28 29 31 31 33 38 30 30 31 34 39
83 79 70 82 90 83 80 68 68 69 74 79 85 83 80 84 72 79 71 57 65 84 25 12 33 25 32 34 22 32 25 29 33 37 39 44 37 33 33 32 30 33 29 33 35 35 32
76 81 75 88 86 82 78 71 65 68 78 84 86 83 77 94 99 76 64 72 88 92 66 30 26 39 41 35 27 30 31 26 27 29 33 35 28 31 31 27 28 27 30 33 38 42 53
83 82 87 92 84 84 85 66 63 71 81 81 84 85 84 93 82 71 68 85 98 91 31 19 29 34 31 34 30 22 36 36 40 44 42 34 36 27 24 30 29 32 35 56 57 56 54
90 76 82 89 91 87 80 80 74 78 80 84 84 88 82 94 82 77 78 99 93 52 48 26 21 20 32 28 26 22 34 36 34 32 40 40 46 30 30 32 33 38 38 63 58 63 54
87 89 83 82 91 86 82 82 79 84 84 84 88 97 97 91 88 83 94 98 67 57 38 45 29 23 27 27 40 30 30 33 29 34 39 44 39 26 23 25 28 38 44 33 44 55 72
80 83 82 84 81 80 86 83 81 86 87 86 100 100 94 91 86 88 98 82 66 52 46 45 42 35 37 34 39 46 53 42 31 29 30 37 46 32 26 26 28 29 32 44 57 58 66
85 85 85 82 77 82 86 78 80 81 88 88 100 99 83 88 92 97 94 74 62 49 48 60 53 40 47 47 44 42 49 36 41 49 34 34 38 37 31 35 34 36 40 41 43 58 52
82 81 79 85 82 78 80 78 81 73 86 96 98 100 95 89 98 94 81 61 53 52 49 54 56 52 52 43 42 41 41 34 53 54 64 50 48 50 37 27 25 28 35 38 53 56 67
86 82 79 80 85 90 87 83 80 75 86 99 98 97 100 82 96 94 66 66 61 63 57 54 60 54 42 44 47 44 46 42 59 61 67 61 75 68 49 38 32 33 31 31 44 55 53
82 87 85 85 88 85 84 84 82 82 81 100 99 99 99 96 82 72 79 72 72 58 62 61 64 59 55 57 51 53 51 40 50 66 69 68 76 78 84 55 40 38 32 29 39 54 47
83 84 83 89 90 84 82 86 87 85 85 100 100 98 91 98 95 79 68 67 68 67 59 60 62 59 66 76 60 58 48 50 48 65 74 79 88 91 85 69 54 46 35 32 33 38 47
93 92 92 99 92 92 90 88 89 88 93 98 100 99 93 88 83 86 75 74 64 59 60 69 74 62 59 65 59 60 54 49 52 59 76 79 84 91 82 64 62 54 36 31 37 36 41
94 95 96 98 98 97 98 98 96 92 100 96 93 91 88 87 91 96 84 72 69 62 59 50 62 66 68 59 52 50 55 55 64 76 76 88 90 92 74 77 66 67 50 38 30 28 38
98 97 98 99 99 96 95 94 94 93 100 96 89 90 97 97 88 82 71 73 69 63 66 58 55 64 55 44 57 67 79 79 81 88 76 91 91 96 98 80 89 63 43 40 34 30 34
100 98 98 98 95 94 94 94 94 93 95 100 98 90 91 95 92 78 76 72 64 62 65 59 53 50 49 55 65 70 78 78 85 87 92 78 91 98 93 86 67 50 46 44 44 39 31
95 99 98 99 99 96 96 99 99 93 96 100 98 94 96 96 94 77 78 70 92 78 73 67 55 53 48 66 75 85 79 65 86 87 85 89 81 88 100 94 85 40 40 29 44 59 36
80 80 84 85 85 85 82 79 86 91 98 100 99 96 95 100 91 78 88 82 62 74 79 70 64 69 61 86 94 83 86 55 62 96 97 98 99 97 98 96 86 60 72 66 89 67 63
88 89 89 90 89 87 85 86 87 84 84 99 99 95 95 100 93 86 78 76 63 63 78 73 73 78 87 88 89 89 95 77 66 64 87 95 98 99 97 99 90 67 65 91 78 69 66
99 97 99 95 100 97 92 90 87 86 87 93 98 99 98 96 93 73 64 75 82 57 59 68 62 75 79 83 90 82 90 94 79 80 58 76 63 83 81 75 57 62 66 71 74 81 59

GFSGBSN_925_rhum_069.txt.gz
RH
77 78 81 80 73 73 72 72 71 71 72 73 73 75 80 80 78 73 71 65 61 59 62 65 67 81 55 45 25 12 19 17 35 29 21 21 25 26 24 20 20 22 18 18 16 20 23
80 86 81 79 77 81 80 75 77 76 76 76 76 72 71 74 80 76 73 70 71 60 45 52 70 85 96 32 9 13 16 32 30 30 23 22 19 21 22 19 19 20 19 20 23 21 24
76 80 78 79 76 75 74 76 75 78 77 75 74 72 73 70 66 64 60 56 57 54 46 61 72 99 80 35 6 18 23 30 38 28 25 22 19 22 23 24 22 23 26 22 20 20 26
92 74 75 75 77 73 74 74 76 75 73 72 71 76 79 79 77 73 70 61 46 36 53 79 97 94 76 13 17 14 17 19 13 17 32 27 24 23 23 23 24 26 27 26 18 26 43
82 84 72 75 72 74 74 76 75 77 74 75 81 82 82 79 82 85 76 62 44 70 64 95 98 86 56 31 50 22 36 34 26 25 30 28 27 29 27 26 26 33 28 29 22 21 41
82 84 82 79 75 73 76 76 82 76 82 82 80 81 78 77 81 86 80 55 49 81 84 92 86 74 42 19 30 40 46 40 30 37 34 32 35 36 35 28 25 24 34 32 25 23 27
90 85 94 76 83 85 86 86 80 80 79 79 80 75 71 76 83 84 75 57 65 67 70 70 62 61 50 50 48 42 42 40 29 32 35 45 38 48 37 30 24 26 30 27 26 24 23
93 93 89 82 83 83 81 80 82 87 83 78 75 73 70 81 82 80 58 78 73 79 93 64 65 59 54 56 57 41 38 30 36 38 33 42 44 37 34 32 30 29 31 30 26 26 26
90 84 87 78 73 77 78 79 84 86 74 72 72 73 73 81 85 77 80 75 67 78 94 66 57 61 54 47 49 37 33 38 36 40 38 28 30 33 36 36 35 34 32 30 27 28 26
89 76 89 85 76 78 76 78 94 82 70 70 70 74 74 88 85 74 73 81 68 81 91 56 63 57 43 42 52 30 22 26 40 38 41 32 22 34 34 34 32 37 29 28 31 31 26
92 90 90 79 82 73 68 74 82 82 68 67 73 70 72 94 92 86 67 69 64 91 43 20 41 30 41 36 28 37 26 29 22 37 38 39 39 37 37 33 30 28 30 32 30 33 34
89 90 89 74 76 71 71 74 79 80 68 74 71 66 78 91 97 86 75 67 80 79 60 33 31 43 51 44 36 38 36 30 24 31 40 33 34 32 27 28 28 27 30 35 42 42 49
85 88 73 87 80 69 74 76 76 83 70 70 69 69 79 98 84 75 71 72 89 83 40 36 38 34 32 42 42 37 44 38 32 35 52 39 34 32 30 33 31 29 35 44 55 58 48
86 87 89 92 86 69 76 84 83 82 73 73 71 75 80 94 95 89 77 88 88 54 59 41 39 39 39 33 35 35 42 44 34 36 32 44 43 36 33 34 36 38 35 45 46 55 44
84 84 77 86 68 72 75 80 87 83 74 73 83 82 95 92 96 94 86 97 62 54 50 57 45 36 40 35 39 36 35 39 31 33 38 49 35 26 31 30 29 42 44 34 46 53 55
82 80 83 77 84 84 88 81 86 93 82 75 99 90 86 87 90 91 99 75 67 54 54 56 56 46 50 43 38 44 51 53 60 40 35 40 45 33 28 28 30 33 34 48 52 51 50
69 90 78 86 91 86 90 86 90 92 76 80 91 97 71 82 98 97 95 80 55 40 42 61 65 63 58 54 43 34 53 50 56 54 40 37 43 41 33 34 36 38 38 42 40 49 45
83 75 90 92 92 90 89 89 89 91 69 82 89 98 92 100 99 100 96 70 51 49 51 54 59 62 58 51 47 44 52 53 39 59 59 61 58 51 36 29 29 30 35 38 50 46 57
86 83 84 93 92 93 90 90 92 76 69 88 100 96 95 92 97 95 99 90 58 62 54 57 65 61 55 52 50 44 53 45 44 44 64 58 72 74 54 42 51 56 50 50 48 47 46
80 84 88 89 90 89 85 90 93 69 65 83 99 98 96 98 94 72 92 86 77 59 58 64 66 60 60 62 57 58 54 45 49 41 60 70 62 86 88 89 78 75 64 58 54 66 49
85 80 82 84 89 84 86 90 89 72 65 75 99 99 97 96 91 92 78 77 76 65 56 61 68 63 66 69 64 58 51 50 43 46 68 68 68 61 58 60 73 63 61 50 44 50 64
74 75 86 90 91 89 90 89 78 68 69 88 98 100 99 100 89 97 83 98 74 64 64 68 70 66 66 66 59 52 54 48 50 52 60 58 77 84 86 69 65 68 56 50 44 48 48
97 89 83 83 84 83 87 85 86 77 69 87 84 95 98 75 84 99 95 78 83 63 60 54 59 63 68 65 57 54 55 54 52 57 59 63 82 86 78 72 65 66 60 47 44 42 46
100 100 92 88 88 92 94 94 91 81 79 89 89 92 95 92 98 89 96 77 74 64 65 58 53 64 58 51 59 60 66 64 63 63 58 63 72 89 84 78 75 34 40 42 47 41 39
94 100 100 96 96 98 98 97 98 96 84 99 94 98 98 92 76 92 93 92 70 64 66 65 56 48 55 61 97 85 69 77 77 68 67 60 70 88 89 81 55 40 31 37 44 39 57
89 97 99 96 92 93 96 97 100 96 94 99 97 96 98 97 92 68 99 90 83 91 87 70 55 71 60 98 99 86 74 64 66 74 79 77 69 81 98 84 81 44 47 59 45 53 57
82 89 88 87 87 87 87 92 98 96 93 98 96 97 96 99 88 74 80 88 75 79 90 79 80 96 77 100 90 86 74 61 69 71 87 89 93 90 94 84 68 52 48 66 60 51 53
91 86 87 86 86 89 84 86 99 95 94 99 96 99 96 100 94 77 67 76 95 88 91 83 96 97 100 97 89 84 82 69 60 64 83 72 91 85 78 88 80 50 57 54 41 47 50
90 88 99 91 93 88 84 84 94 98 99 100 96 98 99 97 97 86 75 64 65 68 70 78 72 80 79 83 82 73 85 85 68 72 66 67 66 73 72 64 55 58 62 50 54 58 54

GFSGBSN_925_rhum_072.txt.gz
RH
82 82 77 77 78 79 82 87 75 75 75 74 74 74 72 76 79 74 70 64 59 51 49 57 55 77 58 26 10 14 8 22 40 36 19 18 18 15 16 13 12 17 10 10 11 12 13
83 82 73 75 76 74 77 73 72 74 75 76 74 70 69 72 73 71 69 71 64 55 50 47 89 83 57 37 10 22 24 30 28 31 22 17 15 14 15 14 14 12 12 11 10 12 14
82 80 80 78 72 73 73 73 75 77 76 73 71 74 79 79 80 78 77 74 65 59 51 50 96 81 61 28 14 23 20 21 28 20 21 18 17 16 14 17 14 14 16 12 12 12 12
85 81 81 78 69 75 76 75 72 74 73 72 70 73 78 76 76 74 73 69 57 57 53 75 88 76 49 25 31 32 23 17 26 29 26 19 18 17 18 15 17 17 16 17 10 11 16
90 84 87 85 70 77 73 77 72 72 75 75 80 76 78 72 72 75 72 64 56 58 73 84 84 68 33 27 35 26 24 18 13 18 19 26 24 21 20 22 19 19 18 18 15 13 16
84 84 86 86 87 71 76 76 77 73 74 74 74 78 74 70 75 75 68 52 59 82 83 78 68 64 32 15 26 38 45 33 21 16 26 29 26 30 26 22 27 20 20 16 16 13 18
90 92 95 89 84 77 87 86 77 72 80 80 77 74 70 71 76 75 71 56 38 46 45 43 35 41 26 34 37 28 45 41 26 19 26 31 31 35 26 23 19 17 16 16 12 13 18
88 88 87 92 92 85 78 86 83 75 76 76 71 72 72 74 77 72 67 55 68 69 75 45 42 37 32 32 41 27 37 29 37 25 17 34 37 24 22 23 23 20 19 18 14 16 19
87 89 82 82 93 87 76 89 82 81 89 75 70 71 74 74 80 74 74 65 76 69 70 43 40 42 40 42 38 27 36 26 34 32 22 25 22 22 24 29 27 23 22 20 18 15 16
88 85 88 86 89 89 73 82 75 80 86 74 70 71 73 72 81 70 59 72 75 74 71 28 42 38 42 36 41 27 22 28 26 26 26 24 17 22 28 28 24 26 18 21 20 22 22
87 90 87 77 82 83 65 75 69 68 79 71 71 73 72 74 84 68 66 72 69 77 31 18 30 30 30 34 23 36 24 19 25 25 31 27 25 21 23 24 18 22 16 22 22 23 23
90 91 83 84 74 85 64 64 69 81 67 67 71 76 75 74 88 78 77 74 65 74 29 20 27 33 42 32 28 33 32 20 18 22 24 27 24 25 18 21 22 21 24 24 24 24 36
78 82 86 85 87 84 82 73 66 68 69 72 71 76 78 82 76 77 80 56 66 40 23 26 33 28 29 28 34 30 41 39 25 38 40 30 29 25 24 23 20 22 25 35 41 42 39
91 85 89 85 85 88 84 72 54 69 75 69 71 77 80 78 93 82 74 64 65 27 35 31 33 31 32 28 31 30 36 37 25 21 25 41 44 29 25 26 28 25 25 32 41 40 32
78 76 76 86 84 84 84 84 68 66 74 70 72 80 87 72 90 92 83 81 33 34 33 46 32 29 30 28 33 30 42 48 27 25 25 30 29 24 24 25 24 29 32 23 31 36 43
82 90 82 85 86 81 79 79 81 74 70 81 89 82 66 70 91 96 100 62 41 44 44 47 43 39 39 35 29 36 43 42 50 36 23 31 31 23 22 24 24 26 23 40 36 49 47
75 75 77 78 82 89 85 81 78 78 67 87 86 74 52 78 94 99 93 67 41 32 38 50 52 48 44 43 32 30 53 40 33 42 35 28 39 42 29 28 30 31 35 30 29 33 40
83 84 81 85 81 84 91 90 92 89 72 83 76 87 71 96 98 99 94 61 44 38 33 42 49 49 46 41 42 31 37 38 31 32 50 48 45 41 36 26 24 24 29 30 40 38 34
88 87 83 86 87 86 88 88 94 89 84 76 76 68 74 96 96 96 91 67 46 42 37 40 44 48 43 45 44 37 37 36 35 31 44 45 52 40 30 29 32 29 35 35 34 37 43
83 87 86 83 87 88 84 78 90 81 66 89 87 93 68 95 91 69 66 66 90 43 40 44 44 50 49 48 40 41 38 31 32 31 63 51 46 63 48 46 46 57 46 43 42 46 39
84 84 82 81 85 88 94 93 88 82 69 88 97 89 54 88 88 99 56 56 58 53 46 42 47 50 48 53 47 47 38 37 31 44 41 61 48 43 44 37 39 40 39 36 40 38 45
89 87 87 80 79 84 88 93 84 77 74 97 98 72 72 76 61 99 98 92 59 43 46 50 52 46 49 54 46 43 41 42 43 36 44 48 46 55 44 37 37 42 34 33 32 30 35
100 99 98 99 91 81 89 89 84 72 75 96 94 67 77 66 54 68 78 61 84 48 43 38 44 51 56 48 42 43 43 44 44 47 50 51 54 52 52 49 46 52 40 30 27 24 30
99 99 92 94 100 96 84 84 85 73 80 82 79 71 85 78 68 61 44 62 74 55 56 44 41 51 50 46 49 49 50 48 49 49 44 50 55 60 60 66 63 28 26 29 33 26 24
97 88 92 94 96 100 91 87 85 81 79 93 77 80 81 82 53 49 57 95 65 54 63 50 44 41 56 70 76 64 61 60 54 50 48 48 48 66 63 48 35 29 24 24 25 23 33
89 85 93 91 95 97 97 97 98 100 98 98 94 81 94 99 68 40 44 56 92 75 63 55 75 52 74 93 74 68 62 50 52 58 45 50 48 58 65 59 59 33 36 37 34 33 32
85 84 83 80 90 92 89 92 94 96 99 100 97 95 85 97 67 86 56 49 68 94 73 68 95 97 91 99 81 68 59 43 52 58 95 80 73 78 67 67 46 32 25 42 49 52 35
95 96 92 89 84 87 88 87 92 94 98 100 97 99 89 87 68 52 58 52 50 63 67 87 95 99 100 97 76 60 62 49 44 43 72 79 73 80 69 68 75 34 41 48 50 39 37
95 100 92 91 91 86 82 84 87 87 89 100 96 99 96 87 92 66 54 52 52 50 63 87 69 84 70 76 59 56 62 54 44 50 36 66 48 51 46 46 40 43 41 34 49 53 49

GFSGBSN_925_rhum_075.txt.gz
RH
79 83 74 69 73 75 77 84 74 71 74 76 75 73 74 79 91 84 76 73 68 63 62 60 60 75 59 27 22 13 12 26 38 36 25 17 17 15 15 11 9 11 10 8 7 7 8
85 86 88 75 70 70 79 74 70 72 75 76 75 72 70 76 74 72 70 67 64 62 64 63 67 91 55 36 17 10 13 15 23 27 19 15 15 12 12 12 11 10 10 10 9 8 8
88 87 81 86 77 66 76 75 76 69 70 72 74 70 72 75 73 67 66 64 59 60 62 55 68 84 42 24 12 13 17 11 11 21 21 16 14 13 12 15 11 11 13 11 11 9 9
81 88 87 88 82 70 67 76 75 76 68 73 75 74 76 75 67 64 64 61 54 54 55 62 74 68 39 17 16 18 18 16 12 12 18 18 17 16 17 14 14 16 15 17 11 10 9
91 88 83 88 85 80 71 66 69 69 68 71 73 70 76 70 65 64 62 52 49 63 69 74 73 50 29 21 20 17 17 17 12 10 15 15 16 19 18 21 22 18 20 16 14 10 10
88 92 93 90 88 75 77 65 76 71 70 74 78 78 72 67 66 61 62 48 50 70 74 59 48 54 33 12 15 22 33 23 13 11 12 13 16 19 18 20 27 21 18 16 16 11 11
86 90 89 91 89 89 90 81 80 79 68 73 80 71 69 66 70 63 72 41 31 46 39 32 24 31 18 12 20 19 27 31 25 22 19 12 21 20 17 17 17 18 17 16 13 10 12
90 86 84 84 82 88 94 83 74 85 73 78 80 70 68 68 67 61 71 43 50 57 66 35 30 27 22 19 22 18 20 34 32 42 41 23 28 18 17 17 20 20 20 18 14 11 15
86 92 91 87 85 82 90 86 74 86 68 63 72 70 68 67 64 75 52 49 57 59 57 31 23 26 25 26 27 22 14 24 29 39 48 42 22 20 20 21 23 23 24 22 19 14 13
92 90 87 85 91 91 85 88 78 80 72 64 73 71 71 62 76 54 46 51 55 63 67 29 25 25 29 28 31 20 17 21 24 32 46 56 32 19 25 25 22 29 19 19 19 19 22
81 83 89 86 88 82 77 75 71 70 71 70 69 71 76 67 64 50 49 55 57 62 31 14 20 24 23 29 23 25 20 19 32 26 32 54 41 29 24 24 20 25 19 19 18 22 23
84 85 82 84 82 75 85 80 80 71 67 71 62 70 74 60 76 60 59 64 56 76 34 16 20 22 29 25 26 25 32 19 22 27 28 31 27 29 22 18 20 19 19 20 19 23 31
87 83 87 88 84 85 74 90 75 74 59 59 70 72 72 67 63 64 67 51 50 36 14 15 21 20 20 25 26 26 34 34 25 35 37 35 38 24 21 24 17 19 24 36 38 36 37
81 80 86 88 83 83 86 81 86 72 69 67 72 68 65 60 59 70 66 54 50 18 19 19 22 20 21 23 27 28 28 32 25 26 24 28 42 32 22 26 26 24 25 33 46 45 33
82 77 84 80 79 81 90 88 89 78 71 71 67 59 59 59 64 78 69 74 23 22 16 24 24 19 16 23 28 28 29 33 25 27 33 28 34 23 24 23 26 33 30 20 29 35 42
81 83 85 83 77 86 78 88 86 75 71 75 57 62 59 56 72 75 83 57 30 23 31 28 23 22 25 27 29 28 36 39 43 36 22 27 31 20 28 25 23 27 26 33 30 52 52
82 81 82 78 83 82 81 82 82 78 72 78 56 68 39 53 82 90 86 54 36 24 30 34 28 33 27 33 30 29 68 45 29 33 29 23 33 34 26 41 32 29 31 32 29 31 45
87 84 81 84 86 76 86 83 78 74 76 69 48 86 46 59 91 85 83 48 36 29 23 31 35 38 38 32 36 31 30 39 29 30 46 24 44 41 34 21 25 24 25 31 43 43 35
86 88 87 85 91 86 89 88 81 83 76 48 67 54 52 76 91 79 57 44 40 35 29 28 34 28 28 36 40 30 27 30 28 28 43 38 38 46 48 35 25 28 26 26 29 32 51
83 85 84 84 79 81 88 90 87 80 66 70 79 89 51 78 78 71 54 51 46 35 34 26 27 27 30 38 32 36 32 26 27 30 51 43 49 41 38 43 34 31 30 33 32 43 38
90 93 94 94 89 85 80 86 82 75 68 72 80 79 50 79 69 63 75 84 46 44 36 32 37 30 37 40 34 34 30 29 27 33 30 42 75 54 45 46 36 37 35 32 33 32 40
91 91 94 98 96 92 87 85 89 76 70 85 98 70 45 51 52 58 54 69 65 34 32 39 38 30 29 38 37 37 35 36 37 30 34 34 40 38 54 34 34 38 34 32 29 28 28
98 99 99 100 99 100 96 84 84 77 76 78 96 57 64 53 44 58 64 55 50 49 60 39 33 32 42 40 35 38 40 46 40 40 42 45 42 36 49 29 37 49 34 30 29 28 27
99 99 99 99 99 100 98 91 86 82 77 67 67 55 78 74 50 42 38 50 44 54 66 52 40 40 37 41 39 39 41 40 41 41 39 47 44 42 51 52 59 26 20 21 24 23 21
92 98 98 95 94 92 97 99 91 87 81 83 65 81 72 81 42 37 37 40 49 52 59 86 78 37 47 55 66 59 60 58 54 41 41 39 44 56 62 47 31 23 19 20 23 21 22
96 93 91 90 88 84 87 90 100 89 81 90 80 74 82 91 57 32 32 31 47 56 88 56 72 58 58 71 94 73 57 48 47 42 36 39 42 52 53 57 48 24 27 28 23 31 27
92 95 94 90 84 80 85 93 98 90 87 87 76 79 86 100 49 56 40 36 30 51 81 66 87 87 72 98 91 68 54 36 52 55 64 64 72 69 62 57 36 23 23 27 42 47 34
91 95 94 98 91 82 81 88 97 95 91 95 90 86 92 96 53 42 43 60 53 46 66 92 96 98 100 100 78 59 56 49 38 40 56 64 76 76 65 82 63 23 26 40 48 41 38
99 98 94 93 97 89 86 88 91 96 97 100 96 99 90 88 55 46 43 43 45 61 86 74 72 84 71 82 55 50 58 50 41 48 37 61 47 50 41 40 31 32 38 40 42 43 42